Regional Weather Roundup
Issued by NWS Charleston, SC

Current Version | Previous Version | Graphics & Text | Print | Product List | Glossary On
Versions: 1 2 3 4 5 6 7 8 9 10 11 12 13 14 15 16 17 18 19 20 21 22 23 24 25 26 27 28 29 30 31 32 33 34 35 36 37 38 39 40 41 42 43 44 45 46 47 48 49 50
000
ASUS42 KCHS 300510
RWRCHS
REGIONAL WEATHER ROUNDUP
NATIONAL WEATHER SERVICE CHARLESTON SC
100 AM EDT WED JUL 30 2014

NOTE: "FAIR" INDICATES FEW OR NO CLOUDS BELOW 12,000 FEET WITH NO
SIGNIFICANT WEATHER AND/OR OBSTRUCTIONS TO VISIBILITY.

NOT ALL STATIONS ARE QUALITY CONTROLLED BY THE NATIONAL
WEATHER SERVICE. USE DATA WITH CAUTION...ESPECIALLY
DEWPOINT OBSERVATIONS.

SCZ027-030-031-034>040-042>050-300600-
...SOUTH CAROLINA...

CITY           SKY/WX    TMP DP  RH WIND       PRES   REMARKS
N CHARLESTON   CLEAR     76  68  76 CALM      29.95F
WATERFRONT PRK   N/A     81 N/A N/A CALM        N/A
FORT JOHNSON   NOT AVBL
MOUNT PLEASANT FAIR      73  72  94 CALM      29.95F FOG
JOHNS ISLAND   CLEAR     73  70  88 CALM      29.95S
PINOPOLIS        N/A     79  72  78 CALM      29.89S
MONCKS CORNER    N/A     72  70  94 CALM      29.96R
SUMMERVILLE    NOT AVBL
BEAUFORT MCAS  CLEAR     75  71  87 CALM      29.94F
BEAUFORT ARPT  FAIR      75  73  94 CALM      29.94S
HILTON HEAD IS CLEAR     73  73 100 CALM      29.95S
GEORGETOWN     NOT AVBL
WALTERBORO     PTCLDY    72  72 100 CALM      29.96S
ORANGEBURG     CLOUDY    74  63  68 E3        29.97R
BARNWELL       FAIR      70  66  88 N3        29.96F
AIKEN          FAIR      72  63  73 N3        30.01S
MANNING        FAIR      70  70 100 CALM      29.97S
KINGSTREE      NOT AVBL
COLUMBIA       PTCLDY    71  60  68 CALM      29.97S
SUMTER         CLEAR     69  63  83 NE3       29.96S
FLORENCE       CLEAR     69  61  75 NE6       29.97S
MYRTLE BEACH   CLEAR     73  68  83 CALM      29.96S
N MYRTLE BEACH CLEAR     73  70  90 NE3       29.96F

$$

GAZ063-065-086>088-099>101-113>116-118-119-134-136>141-150-300600-
...GEORGIA...

CITY           SKY/WX    TMP DP  RH WIND       PRES   REMARKS
SAVANNAH ARPT  CLOUDY    78  69  73 CALM      29.95S
HUNTER AAF     CLOUDY    76  73  90 W5        29.93S
FORT STEWART   PTCLDY    73  67  83 CALM      29.94F
STATESBORO     NOT AVBL
SYLVANIA       CLEAR     69  69 100 CALM      29.96F
CLAXTON        FAIR      72  72 100 CALM      29.96S
THOMSON        CLEAR     67  67 100 CALM      30.03S
AUGUSTA-BUSH   CLEAR     68  62  81 CALM      29.96S
AUGUSTA-DANIEL MOCLDY    79  58  48 N8        29.98S
SWAINSBORO     FAIR      68  68 100 CALM      29.98S
VIDALIA          N/A     72  63  73 CALM      29.97F
ALMA           MOCLDY    72  59  63 N3        29.96S
WAYCROSS       CLOUDY    75  67  75 CALM      29.96S
JESUP          FAIR      81  63  54 N3        29.96S
BRUNSWICK      PTCLDY    77  72  83 CALM      29.95S
SAINT SIMONS   CLEAR     82  72  71 E5        29.94S

$$

SCZ027-028-034-036>038-045-046-048>050-GAZ119-141-300600-
...LAKE AND SUPPLEMENTAL COASTAL OBSERVATIONS...

STATION/POSITION TIME  TEMP    WIND        PRES    WAVE   SWELL
                       AIR SEA DIR/SP/G            HT/PER HT/PER/DIR
                 (UTC) (F)     (DEG/KT/KT) (MB)    (FT/S) (FT/S/D)
UPR LAKE MARION  NOT AVBL
WINYAH BAY       0400   74     310/  2     1014.0S
LAKE MURRAY      0400   76      CALM  /  4 1014.6R
ACE BASIN NERRS  0400   75        CALM     1014.0S
FORT PULASKI     0500   80     150/  2/  2 1014.1S
SAPELO ISLAND    0400   78      90/  3     1014.0S

$$

ANZ835-935-AMZ111-154-330-350-352-354-374-450-454-472-300600-
...C-MAN AND BUOY OBSERVATIONS...

STATION/POSITION TIME  TEMP    WIND        PRES    WAVE   SWELL
                       AIR SEA DIR/SP/G            HT/PER HT/PER/DIR
                 (UTC) (F)     (DEG/KT/KT) (MB)    (FT/S) (FT/S/D)
FOLLY BEACH CMAN 0400   82      90/  3/  4 1014.8S
BUOY 41004       0500   82 84   50/  4/  6 1013.6F   2/ 8   2/ 8
BUOY 41008       0500   83 85  100/  4/  6 1013.7F   2/ 9   2/100/ 9
5E ST. MARYS GA  0400      85                N/A     2/ 9
FRYING PAN BUOY  NOT AVBL
BUOY 41025       0500          VRB 14/ 16  1014.4F   3/ 8   2/140/ 8
CAPE LOOKOUT NC  0400   77      60/ 13/ 14 1015.1F
BUOY 41002       0446   81 81  220/ 17/ 21 1014.0F   6/ 7   2/340/15
BUOY 41010       0400   84 84  220/ 10/ 12 1014.4F
BUOY 41012       NOT AVBL
ST AUGUSTINE FL  0500   80     310/  7/  9 1014.2R
CAPERS NEARSHORE 0400   81      CALM  /  2   N/A
FRIPP NEARSHORE  NOT AVBL


$$



USA.gov is the U.S. government's official web portal to all federal, state and local government web resources and services.